• In Uzbekistan
  • List of Countries
  • For 7 days
  • Water Temperature
  • Satellite Maps
  • Weather Map
  • Weather Widgets
  • user-avatar
    Login

    Hourly Weather Mochudi

    Today, 23 July, Tuesday

    Time Temperature Precipitation Wind Pressure Humidity
    00:00 +9°C° 0 mm 1 mps 682 mmHg 56%
    01:00 +8°C° 0 mm 1 mps 682 mmHg 60%
    02:00 +8°C° 0 mm 1 mps 681 mmHg 63%
    03:00 +7°C° 0 mm 1 mps 681 mmHg 67%
    04:00 +7°C° 0 mm 1 mps 681 mmHg 71%
    05:00 +5°C° 0 mm 0 mps 681 mmHg 74%
    06:00 +7°C° 0 mm 1 mps 681 mmHg 71%
    07:00 +8°C° 0 mm 1 mps 681 mmHg 67%
    08:00 +9°C° 0 mm 1 mps 682 mmHg 63%
    09:00 +12°C° 0 mm 1 mps 682 mmHg 52%
    10:00 +16°C° 0 mm 2 mps 683 mmHg 40%
    11:00 +20°C° 0 mm 2 mps 684 mmHg 29%
    12:00 +23°C° 0 mm 2 mps 683 mmHg 23%
    13:00 +26°C° 0 mm 3 mps 682 mmHg 18%
    14:00 +28°C° 0 mm 4 mps 682 mmHg 13%
    15:00 +28°C° 0 mm 3 mps 681 mmHg 13%
    16:00 +27°C° 0 mm 3 mps 681 mmHg 13%
    17:00 +27°C° 0 mm 3 mps 680 mmHg 13%
    18:00 +24°C° 0 mm 3 mps 680 mmHg 15%
    19:00 +20°C° 0 mm 3 mps 680 mmHg 18%
    20:00 +17°C° 0 mm 3 mps 680 mmHg 21%
    21:00 +16°C° 0 mm 3 mps 680 mmHg 22%
    22:00 +16°C° 0 mm 3 mps 680 mmHg 22%
    23:00 +14°C° 0 mm 3 mps 680 mmHg 23%

    Tomorrow, 24 July, Wednesday

    Time Temperature Precipitation Wind Pressure Humidity
    00:00 +13°C° 0 mm 3 mps 679 mmHg 24%
    01:00 +13°C° 0 mm 3 mps 679 mmHg 25%
    02:00 +12°C° 0 mm 3 mps 679 mmHg 27%
    03:00 +11°C° 0 mm 3 mps 679 mmHg 27%
    04:00 +10°C° 0 mm 3 mps 679 mmHg 27%
    05:00 +10°C° 0 mm 3 mps 680 mmHg 27%
    06:00 +10°C° 0 mm 3 mps 680 mmHg 29%
    07:00 +10°C° 0 mm 3 mps 681 mmHg 30%
    08:00 +10°C° 0 mm 3 mps 681 mmHg 31%
    09:00 +12°C° 0 mm 3 mps 682 mmHg 28%
    10:00 +15°C° 0 mm 4 mps 683 mmHg 25%
    11:00 +19°C° 0 mm 4 mps 683 mmHg 23%
    12:00 +21°C° 0 mm 4 mps 683 mmHg 19%
    13:00 +23°C° 0 mm 4 mps 683 mmHg 16%
    14:00 +25°C° 0 mm 3 mps 682 mmHg 13%
    15:00 +25°C° 0 mm 3 mps 682 mmHg 13%
    16:00 +24°C° 0 mm 2 mps 682 mmHg 12%
    17:00 +24°C° 0 mm 1 mps 682 mmHg 12%
    18:00 +21°C° 0 mm 1 mps 682 mmHg 15%
    19:00 +18°C° 0 mm 1 mps 682 mmHg 18%
    20:00 +14°C° 0 mm 1 mps 682 mmHg 21%
    21:00 +13°C° 0 mm 2 mps 682 mmHg 22%
    22:00 +12°C° 0 mm 2 mps 682 mmHg 24%
    23:00 +10°C° 0 mm 2 mps 682 mmHg 25%

    Day after tomorrow, 25 July, Thursday

    Time Temperature Precipitation Wind Pressure Humidity
    00:00 +9°C° 0 mm 2 mps 682 mmHg 28%
    01:00 +8°C° 0 mm 2 mps 681 mmHg 31%
    02:00 +7°C° 0 mm 2 mps 681 mmHg 34%
    03:00 +7°C° 0 mm 2 mps 681 mmHg 36%
    04:00 +7°C° 0 mm 2 mps 681 mmHg 38%
    05:00 +7°C° 0 mm 1 mps 681 mmHg 39%
    06:00 +8°C° 0 mm 1 mps 682 mmHg 38%
    07:00 +9°C° 0 mm 1 mps 683 mmHg 36%
    08:00 +9°C° 0 mm 1 mps 683 mmHg 34%
    09:00 +13°C° 0 mm 2 mps 684 mmHg 30%
    10:00 +16°C° 0 mm 2 mps 685 mmHg 25%
    11:00 +20°C° 0 mm 3 mps 685 mmHg 21%
    12:00 +22°C° 0 mm 3 mps 685 mmHg 18%
    13:00 +24°C° 0 mm 2 mps 685 mmHg 16%
    14:00 +26°C° 0 mm 2 mps 684 mmHg 13%
    15:00 +26°C° 0 mm 2 mps 684 mmHg 13%
    16:00 +25°C° 0 mm 1 mps 684 mmHg 12%
    17:00 +23°C° 0 mm 0 mps 683 mmHg 12%
    18:00 +22°C° 0 mm 1 mps 683 mmHg 15%
    19:00 +19°C° 0 mm 1 mps 683 mmHg 18%
    20:00 +16°C° 0 mm 1 mps 683 mmHg 21%
    21:00 +15°C° 0 mm 1 mps 683 mmHg 25%
    22:00 +14°C° 0 mm 1 mps 683 mmHg 28%
    23:00 +12°C° 0 mm 1 mps 683 mmHg 31%

    26 July, Friday

    Time Temperature Precipitation Wind Pressure Humidity
    00:00 +12°C° 0 mm 1 mps 683 mmHg 36%
    01:00 +11°C° 0 mm 1 mps 683 mmHg 42%
    02:00 +9°C° 0 mm 0 mps 682 mmHg 47%
    03:00 +9°C° 0 mm 1 mps 682 mmHg 51%
    04:00 +9°C° 0 mm 1 mps 682 mmHg 55%
    05:00 +8°C° 0 mm 1 mps 682 mmHg 59%
    06:00 +9°C° 0 mm 1 mps 683 mmHg 59%
    07:00 +10°C° 0 mm 1 mps 684 mmHg 58%
    08:00 +11°C° 0 mm 1 mps 684 mmHg 58%
    09:00 +14°C° 0 mm 1 mps 685 mmHg 50%
    10:00 +19°C° 0 mm 1 mps 686 mmHg 41%
    11:00 +23°C° 0 mm 1 mps 686 mmHg 32%
    12:00 +24°C° 0 mm 2 mps 686 mmHg 26%
    13:00 +26°C° 0 mm 2 mps 685 mmHg 20%
    14:00 +28°C° 0 mm 2 mps 685 mmHg 14%
    15:00 +28°C° 0 mm 2 mps 685 mmHg 13%
    16:00 +27°C° 0 mm 2 mps 684 mmHg 13%
    17:00 +27°C° 0 mm 2 mps 684 mmHg 12%
    18:00 +24°C° 0 mm 1 mps 684 mmHg 16%
    19:00 +21°C° 0 mm 1 mps 684 mmHg 19%
    20:00 +16°C° 0 mm 0 mps 683 mmHg 23%
    21:00 +15°C° 0 mm 0 mps 683 mmHg 24%
    22:00 +15°C° 0 mm 1 mps 683 mmHg 24%
    23:00 +14°C° 0 mm 1 mps 683 mmHg 25%

    27 July, Saturday

    Time Temperature Precipitation Wind Pressure Humidity
    00:00 +13°C° 0 mm 1 mps 683 mmHg 26%
    01:00 +12°C° 0 mm 2 mps 683 mmHg 28%
    02:00 +10°C° 0 mm 2 mps 683 mmHg 29%
    03:00 +10°C° 0 mm 2 mps 683 mmHg 34%
    04:00 +9°C° 0 mm 2 mps 683 mmHg 38%
    05:00 +10°C° 0 mm 1 mps 684 mmHg 43%
    06:00 +9°C° 0 mm 2 mps 684 mmHg 44%
    07:00 +10°C° 0 mm 2 mps 685 mmHg 44%
    08:00 +10°C° 0 mm 2 mps 686 mmHg 45%
    09:00 +13°C° 0 mm 3 mps 686 mmHg 42%
    10:00 +17°C° 0 mm 4 mps 687 mmHg 40%
    11:00 +20°C° 0 mm 5 mps 687 mmHg 37%
    12:00 +22°C° 0 mm 5 mps 687 mmHg 34%
    13:00 +23°C° 0 mm 5 mps 686 mmHg 30%
    14:00 +26°C° 0 mm 4 mps 685 mmHg 26%
    15:00 +25°C° 0 mm 4 mps 685 mmHg 26%
    16:00 +25°C° 0 mm 4 mps 685 mmHg 26%
    17:00 +23°C° 0 mm 4 mps 684 mmHg 27%
    18:00 +21°C° 0 mm 3 mps 684 mmHg 32%
    19:00 +19°C° 0 mm 3 mps 684 mmHg 38%
    20:00 +16°C° 0 mm 2 mps 684 mmHg 43%
    21:00 +15°C° 0 mm 2 mps 684 mmHg 52%
    22:00 +14°C° 0 mm 2 mps 684 mmHg 60%
    23:00 +13°C° 0 mm 2 mps 684 mmHg 68%

    28 July, Sunday

    Time Temperature Precipitation Wind Pressure Humidity
    00:00 +12°C° 0 mm 2 mps 683 mmHg 72%
    01:00 +10°C° 0 mm 2 mps 683 mmHg 76%
    02:00 +10°C° 0 mm 1 mps 683 mmHg 79%
    03:00 +10°C° 0 mm 1 mps 682 mmHg 82%
    04:00 +9°C° 0 mm 1 mps 682 mmHg 85%
    05:00 +9°C° 0 mm 1 mps 682 mmHg 88%
    06:00 +9°C° 0 mm 1 mps 682 mmHg 86%
    07:00 +10°C° 0 mm 1 mps 683 mmHg 84%
    08:00 +10°C° 0 mm 1 mps 683 mmHg 82%
    09:00 +14°C° 0 mm 2 mps 683 mmHg 68%
    10:00 +17°C° 0 mm 2 mps 684 mmHg 54%
    11:00 +20°C° 0 mm 3 mps 684 mmHg 41%
    12:00 +22°C° 0 mm 3 mps 684 mmHg 34%
    13:00 +25°C° 0 mm 2 mps 683 mmHg 28%
    14:00 +27°C° 0 mm 2 mps 683 mmHg 22%
    15:00 +26°C° 0 mm 2 mps 682 mmHg 21%
    16:00 +26°C° 0 mm 2 mps 682 mmHg 20%
    17:00 +26°C° 0 mm 2 mps 681 mmHg 20%
    18:00 +23°C° 0 mm 2 mps 681 mmHg 24%
    19:00 +19°C° 0 mm 2 mps 681 mmHg 29%
    20:00 +17°C° 0 mm 2 mps 680 mmHg 33%
    21:00 +16°C° 0 mm 1 mps 680 mmHg 36%
    22:00 +15°C° 0 mm 1 mps 680 mmHg 39%
    23:00 +12°C° 0 mm 0 mps 680 mmHg 42%
    Show more